Regional Weather Roundup
Issued by NWS

Home | Current Version | Previous Version | Text Only | Print | Product List | Glossary Off
Versions: 1 2 3 4 5 6 7 8 9 10 11 12 13 14 15 16 17 18 19 20 21 22 23 24 25 26 27 28 29 30 31 32 33 34 35 36 37 38 39 40 41 42 43 44 45 46 47 48 49 50

000
ASUS45 KTFX 032304
RWRMT
MONTANA HOURLY WEATHER ROUNDUP
NATIONAL WEATHER SERVICE GREAT FALLS MT
404 PM MST TUE MAR 3 2015

NOTE: "FAIR" INDICATES FEW OR NO CLOUDS BELOW 12000 FEET WITH NO
SIGNIFICANT WEATHER AND/OR OBSTRUCTIONS TO VISIBILITY.

* THESE STATIONS ARE NOT UNDER NWS QUALITY CONTROL. THEY DO NOT
   REPORT WEATHER SUCH AS PRECIPITATION OR FOG.

MTZ001>007-043-040000-
WEST OF THE DIVIDE
CITY           SKY/WX    TMP DP  RH WIND       PRES   REMARKS
KALISPELL      SUNNY     27   9  46 S12       30.07S WCI  16
MISSOULA       PTCLDY    28   7  41 N9G17     30.06F WCI  19
BUTTE          SUNNY     19   0  43 W9        29.89F WCI   8
MULLAN PASS    SUNNY     18   9  68 NW8       29.92S WCI   8
* ANACONDA     SUNNY     18  -2  41 N8         N/A   WCI   8
* ESSEX        N/A       25  -2  30 SE3        N/A
* LINCOLN      N/A       24  -4  29 SW7G16     N/A   WCI  16
* LOOKOUT PASS N/A       24   6  46 N4G12      N/A
* POLSON       N/A       27  10  49 S2G7       N/A
* RONAN APT    SUNNY     27   5  39 N/A        N/A
* SEELEY LAKE  N/A       24   0  35 SW5G12     N/A   WCI  18
* THOMP F APT  PTCLDY    21   2  43 W9G24      N/A   WCI  11
* YAAK HILL    N/A       37  10  33 S3         N/A
$$

MTZ008-052>055-040000-
SOUTHWEST MONTANA
CITY           SKY/WX    TMP DP  RH WIND       PRES   REMARKS
BOZEMAN        PTCLDY    16   0  49 SE5       29.99F WCI   8
DILLON         SUNNY     19   5  54 SE3       29.89F
* W YELLOWSTON SUNNY     20  -3  36 SW4G10     N/A
* THREE FORKS  SUNNY     21   0  40 SE7        N/A   WCI  12
* BOULDER HILL N/A       15  -5  40 VRB7G12    N/A   WCI   5
* MONIDA PASS  N/A       18   4  54 NW16       N/A   WCI   3
* RAYNOLDS PAS N/A       10  10 100 VRB7       N/A   WCI  -1
* WHITEHALL    N/A       26   0  32 S5         N/A   WCI  20
* WISE RIVER   N/A       25  -1  32 SW13G20    N/A   WCI  13
$$

MTZ009>010-012-014-046-048-049-054-040000-
EAST SLOPES AND CENTRAL MONTANA
CITY           SKY/WX    TMP DP  RH WIND       PRES   REMARKS
CUT BANK       SUNNY     18   1  47 NW16      30.02S WCI   3
GREAT FALLS    SUNNY     18   3  52 SW6       30.02F WCI  10
HELENA         PTCLDY    25   1  35 E12       29.99F WCI  14
* DEARBORN     N/A       18   5  57 NE4        N/A
* EAST GLACIER N/A        6  -2  69 S4         N/A
* MONARCH      N/A       15  -9  33 NW3        N/A
* PENDROY      N/A       16   1  51 NW1        N/A
* ROGERS PASS  N/A       16  -2  45 SE4G13     N/A
* SWEET GRASS  N/A       13  -1  53 NW14G19    N/A   WCI  -2
$$

MTZ011-013-016-021-035-040-045-047-050-051-040000-
NORTH CENTRAL MONTANA
CITY           SKY/WX    TMP DP  RH WIND       PRES   REMARKS
HAVRE          SUNNY     19  -4  36 W23G29    30.07F WCI   2
LEWISTOWN      SUNNY     12  -2  53 NW9       29.98S
* N BAR RANCH  SUNNY     10  -6  48 NW16G23   29.94S WCI  -7
* CHESTER      N/A       19  -5  34 NW15G25    N/A   WCI   5
* DENTON       N/A       16  -2  45 NW9        N/A   WCI   5
* GEYSER       N/A       14   0  53 W13        N/A
* JUDITH GAP   N/A        9  -4  55 N25        N/A   WCI -12
* LOMA         N/A       21  -1  38 SW10       N/A   WCI  10
$$

MTZ017>020-022>027-061-062-040000-
NORTHEAST MONTANA
CITY           SKY/WX    TMP DP  RH WIND       PRES   REMARKS
GLASGOW        PTCLDY    18  -9  29 NW23G35   30.00F WCI   1
GLENDIVE       CLOUDY    14  -6  40 W22G28    30.01S WCI  -4
JORDAN         SUNNY     18  -6  34 NW21G28   30.02S WCI   1
SIDNEY         SUNNY     14  -6  40 W21G29    30.04R WCI  -4
WOLF POINT     CLOUDY    19  -6  32 W18G29    30.02F WCI   4
* BEAVER HILL  N/A       12  -5  46 W22G31     N/A   WCI  -7
* CIRCLE       N/A       15  -1  49 NW11G23    N/A   WCI   2
* LINDSAY DVD  N/A       10  -6  48 W26G36     N/A   WCI -11
* NAVAJO       N/A        6  -4  63 NW21G27    N/A   WCI -15
* SACO         N/A       17  -8  32 W26G32     N/A   WCI  -2
$$

MTZ028>042-056>058-040000-
SOUTHCENTRAL AND SOUTHEAST MONTANA
CITY           SKY/WX    TMP DP  RH WIND       PRES   REMARKS
BAKER          PTSUNNY   12  -6  44 NW22G33   29.97S WCI  -7
BILLINGS       SUNNY     19  -4  36 NW14      29.99F WCI   5
LIVINGSTON     PTCLDY    18   0  45 W20       29.93F WCI   2
MILES CITY     PTSUNNY   19  -6  32 W21G26    30.03F WCI   3
* LAUREL APT   SUNNY     19  -6  32 N/A        N/A
* ROUNDUP APT  SUNNY     18 -11  26 NW18       N/A   WCI   2
* ALZADA       N/A       12  -2  53 W11G21     N/A   WCI  -2
* HYSHAM       N/A       17  -6  35 W10G19     N/A   WCI   5
* REED POINT   N/A       22   4  46 W11G17     N/A   WCI  11
$$

REGIONAL REPORTS...DAKOTAS
CITY           SKY/WX    TMP DP  RH WIND       PRES   REMARKS
WILLISTON      SUNNY      9  -2  61 NW20G25   30.02S WCI -10
DICKINSON      PTCLDY    12  -6  44 W28G37    29.93S WCI  -9
BEACH          CLOUDY    12  -4  48 NW23G36   29.97S WCI  -7
CROSBY         SUNNY      5  -8  54 NW23G31   29.99F WCI -17
WATFORD CITY   LGT SNOW   9   0  66 NW21G26   29.98R WCI -11
BISMARCK       LGT SNOW  10   1  67 NW16      30.01S WCI  -7
GRAND FORKS    CLOUDY     9  -2  61 W24G31    29.92R WCI -12
FARGO          LGT SNOW  10  -2  58 NW28G33   29.95R WCI -12
BUFFALO SD     SUNNY     16  -4  40 NW28G37   29.88F WCI  -4
RAPID CITY     PTSUNNY   16   3  56 N25G32    29.94S WCI  -3
$$

REGIONAL REPORTS...WYOMING/IDAHO/WASHINGTON
CITY           SKY/WX    TMP DP  RH WIND       PRES   REMARKS
GILLETTE       PTSUNNY   12   0  58 NW15      29.93R WCI  -4
SHERIDAN       SUNNY     10   0  64 W12       29.99S WCI  -5
CODY           SUNNY     12   0  58 CALM      29.91S
YELLOWSTONE LA SUNNY     16  -8  33 VRB7      29.74S WCI   6
SALMON         SUNNY     34   5  29 N5        29.93F WCI  29
MULLAN PASS    SUNNY     18   9  68 NW8       29.92S WCI   8
SAND POINT     PTCLDY    36  14  40 E8        30.11S WCI  30
SPOKANE        SUNNY     37  12  36 SW5       30.11F WCI  33
$$

REGIONAL REPORTS...SASKATCHEWAN
CITY           SKY/WX    TMP DP  RH WIND       PRES   REMARKS
SWIFT CURRENT  LGT SNOW   5   0  80 NW33G40   29.93R VSB 3/4  WCI -20
REGINA         LGT SNOW   1  -2  87 NW25G32   29.95S VSB 1/2  WCI -23

$$




USA.gov is the U.S. government's official web portal to all federal, state and local government web resources and services.